Cleveland, Oklahoma, United States (74020)
Lat: 36.31N, Lon: 96.46W
Wx Zone: OKZ059
Local Info
Past Weather Observations for Today

NOTE: This archive is for the closest National Weather Service station to Cleveland. Information may differ from the station used for current weather conditions.

Time Weather Temperature Dewpoint Humidity Pressure Winds Precip Visibility
07:55
Mostly Cloudy
66°F / 19°C 64°F / 18°C 94% 29.68 in
(1005 mb)
S 10.4 mph
(S 17 kph)
- 10SM
07:35
Mostly Cloudy
64°F / 18°C 63°F / 17°C 94% 29.68 in
(1005 mb)
S 9.2 mph
(S 15 kph)
- 10SM
07:15
Partly Cloudy
64°F / 18°C 63°F / 17°C 94% 29.68 in
(1005 mb)
S 10.4 mph
(S 17 kph)
- 10SM
06:55
Clear
64°F / 18°C 63°F / 17°C 94% 29.65 in
(1004 mb)
SSE 8.1 mph
(SSE 13 kph)
- 10SM
06:35
Partly Cloudy
64°F / 18°C 63°F / 17°C 94% 29.65 in
(1004 mb)
S 11.5 mph
(S 19 kph)
- 10SM
06:15
Overcast
64°F / 18°C 63°F / 17°C 94% 29.68 in
(1005 mb)
S 15 mph
(S 24 kph)
- 10SM
05:55
Overcast
64°F / 18°C 63°F / 17°C 94% 29.65 in
(1004 mb)
S 15 mph
(S 24 kph)
- 10SM
05:35
Mostly Cloudy
64°F / 18°C 63°F / 17°C 94% 29.62 in
(1003 mb)
S 13.8 mph
(S 22 kph)
- 10SM
05:15
Partly Cloudy
64°F / 18°C 63°F / 17°C 94% 29.62 in
(1003 mb)
S 17.3 mph
(S 28 kph)
- 10SM
04:55
Partly Cloudy
66°F / 19°C 63°F / 17°C 88% 29.62 in
(1003 mb)
S 16.1 mph
(S 26 kph)
- 10SM
04:35
Clear
64°F / 18°C 63°F / 17°C 94% 29.62 in
(1003 mb)
S 16.1 mph
(S 26 kph)
- 10SM
04:15
Clear
66°F / 19°C 63°F / 17°C 88% 29.62 in
(1003 mb)
S 18.4 mph
(S 30 kph)
- 10SM
03:55
Clear
66°F / 19°C 63°F / 17°C 88% 29.62 in
(1003 mb)
S 15 mph
(S 24 kph)
- 10SM
03:35
Clear
64°F / 18°C 63°F / 17°C 94% 29.65 in
(1004 mb)
S 17.3 mph
(S 28 kph)
- 10SM
03:15
Clear
64°F / 18°C 61°F / 16°C 88% 29.65 in
(1004 mb)
S 17.3 mph
(S 28 kph)
- 10SM
02:55
Clear
64°F / 18°C 61°F / 16°C 88% 29.65 in
(1004 mb)
S 15 mph
(S 24 kph)
- 10SM
02:35
Clear
64°F / 18°C 61°F / 16°C 88% 29.62 in
(1003 mb)
S 10.4 mph
(S 17 kph)
- 10SM
02:15
Clear
64°F / 18°C 61°F / 16°C 88% 29.62 in
(1003 mb)
SSE 10.4 mph
(SSE 17 kph)
- 10SM
01:55
Clear
64°F / 18°C 61°F / 16°C 88% 29.62 in
(1003 mb)
SSE 10.4 mph
(SSE 17 kph)
0.03 in
(0.76 mm)
10SM
01:35
Clear
66°F / 19°C 61°F / 16°C 83% 29.62 in
(1003 mb)
SSE 12.7 mph
(SSE 20 kph)
0.03 in
(0.76 mm)
10SM
01:15
Partly Cloudy
Light Rain
66°F / 19°C 61°F / 16°C 83% 29.62 in
(1003 mb)
SSE 20.7 mph
(SSE 33 kph)
0.03 in
(0.76 mm)
10SM
00:55
Partly Cloudy
Light Rain
66°F / 19°C 63°F / 17°C 88% 29.65 in
(1004 mb)
SSE 12.7 mph
(SSE 20 kph)
- 10SM
00:35
Clear
66°F / 19°C 63°F / 17°C 88% 29.68 in
(1005 mb)
SSE 10.4 mph
(SSE 17 kph)
- 10SM
00:15
Partly Cloudy
64°F / 18°C 63°F / 17°C 94% 29.65 in
(1004 mb)
SSE 16.1 mph
(SSE 26 kph)
- 10SM
Time Weather Temperature Dewpoint Humidity Pressure Winds Precip Visibility


Weather for websites

WeatherForYou.com, LLC is not responsible for any damages or problems caused by this service. Current weather conditions are obtained from the closest station including government and personal stations which may have varying degrees of accuracy. Weather forecasts are derived from the NOAA NDFD. Like all things, this site belongs to Jesus Christ... He just trusts me to maintain it. If you have any questions or comments email webmaster@weatherforyou.com

Copyright © 2014, WeatherForYou.com LLC. All rights reserved.